Home > Weather > Rotterdam > Past weeks

Flag for Netherlands Past Weather in Rotterdam, Netherlands — Yesterday and Last 2 Weeks

Now
75 °F

Clear.


Feels Like: 78 °F
Forecast: 59 / 69 °F
Wind: 6 mph from West

Location: Rotterdam Zestienhoven Airport

Current Time: Jul 26, 2016 at 2:11:14 PM

Latest Report: Jul 26, 2016 at 1:25 PM


Visibility: N/A

Pressure: 30.12 "Hg

Humidity: 54%

Dew Point: 57 °F

Location of RotterdamLocation

Past Weather in Rotterdam — Graph

°F

Rotterdam Temperature Yesterday

Maximum temperature yesterday: 70 °F (at 1:55 PM)
Minimum temperature yesterday: 59 °F (at 10:55 PM)
Average temperature yesterday: 66 °F

High & Low Weather Summary for the Past Weeks

 TemperatureHumidityPressure
High91 °F (Jul 20, 2:25 PM)100% (Jul 18, 12:25 AM)30.27 "Hg (Jul 18, 12:25 AM)
Low50 °F (Jul 14, 3:55 AM)38% (Jul 20, 2:55 PM)29.77 "Hg (Jul 11, 12:25 PM)
Average67 °F76%30.06 "Hg
* Reported Jul 11 12:25 PM — Jul 26 12:25 PM, Rotterdam, Weather by CustomWeather, © 2016

Note: Actual official high and low records may vary slightly from our data, if they occured in-between our weather recording intervals... More about our weather records

Advertising

Rotterdam Weather History for the Previous 24 Hours

Scroll right to see more
 ConditionsComfort  
Time TempWeatherWind HumidityBarometerVisibility
12:25 PM
Tue, Jul 26
73 °FMild.6 mph53%30.12 "HgN/A
11:55 AM72 °FMild.5 mph61%30.15 "HgN/A
11:25 AM72 °FScattered clouds.6 mph57%30.12 "HgN/A
10:55 AM72 °FMild.5 mph57%30.12 "HgN/A
10:25 AM70 °FMild.3 mph64%30.12 "HgN/A
9:55 AM70 °FClear.3 mph69%30.12 "HgN/A
9:25 AM68 °FClear.5 mph78%30.12 "HgN/A
8:55 AM66 °FClear.5 mph83%30.12 "HgN/A
8:25 AM64 °FClear.6 mph88%30.12 "HgN/A
7:55 AM64 °FClear.5 mph83%30.12 "HgN/A
7:25 AM63 °FClear.3 mph88%30.12 "HgN/A
6:55 AM61 °FCool.5 mph88%30.12 "HgN/A
6:25 AM61 °FCool.7 mph88%30.09 "HgN/A
5:55 AM61 °FClear.6 mph88%30.09 "HgN/A
5:25 AM61 °FCool.7 mph88%30.09 "HgN/A
4:55 AM61 °FCool.8 mph88%30.09 "HgN/A
4:25 AM61 °FCool.7 mph94%30.12 "HgN/A
3:55 AM59 °FCool.7 mph94%30.12 "HgN/A
3:25 AM59 °FCool.7 mph94%30.12 "HgN/A
2:55 AM59 °FClear.5 mph94%30.12 "HgN/A
2:25 AM57 °FCool.3 mph100%30.12 "HgN/A
1:55 AM59 °FCool.1 mph100%30.12 "HgN/A
1:25 AM57 °FClear.1 mph100%30.12 "HgN/A
12:55 AM59 °FClear.1 mph94%30.12 "HgN/A
12:25 AM59 °FClear.No wind94%30.12 "HgN/A
11:55 PM
Mon, Jul 25
61 °FClear.No wind88%30.12 "HgN/A
11:25 PM59 °FClear.2 mph94%30.12 "HgN/A
10:55 PM59 °FCool.3 mph94%30.12 "HgN/A
10:25 PM61 °FRain showers. Cloudy.2 mph88%30.12 "HgN/A
9:55 PM61 °FCool.1 mph88%30.12 "HgN/A
9:25 PM64 °FClear.2 mph78%30.12 "HgN/A
8:55 PM66 °FClear.3 mph73%30.09 "HgN/A
8:25 PM66 °FMild.5 mph73%30.09 "HgN/A
7:55 PM68 °FClear.6 mph69%30.09 "HgN/A
7:25 PM70 °FClear.8 mph60%30.09 "HgN/A
6:55 PM70 °FPassing clouds.8 mph64%30.09 "HgN/A
6:25 PM70 °FPassing clouds.8 mph64%30.09 "HgN/A
5:55 PM70 °FScattered clouds.9 mph64%30.09 "HgN/A
5:25 PM70 °FClear.9 mph64%30.09 "HgN/A
4:55 PM70 °FMild.12 mph60%30.09 "HgN/A
4:25 PM70 °FPartly sunny.14 mph64%30.09 "HgN/A
3:55 PM70 °FScattered clouds.13 mph64%30.09 "HgN/A
3:25 PM70 °FScattered clouds.14 mph69%30.09 "HgN/A
2:55 PM70 °FMore clouds than sun.12 mph73%30.09 "HgN/A
2:25 PM68 °FMostly cloudy.12 mph78%30.09 "HgN/A
Weather by CustomWeather, © 2016

See weather overviewHow to use our weather pages